Home > Time Zones > World Clock > Weather > Serbia > Niš > Past weeks

Flag for Serbia Weather past 2 weeks in Niš, Serbia

Now
46 °F

Fog.


Feels Like: 44 °F
Forecast: 36 / 46 °F
Wind: 6 mph from South

Location: Nis Airport

Current Time: Dec 20, 2014 at 12:49:34 PM

Latest Report: Dec 20, 2014 at 12:30 PM


Visibility: 2 mi

Pressure: 30.21 "Hg

Humidity: 76%

Dew point: 39 °F

Location of NišLocation

Historic Weather in Niš — Graph

°F

Niš temperature yesterday

Maximum temperature yesterday: 52 °F (at 2:30 PM)
Minimum temperature yesterday: 39 °F (at 1:30 AM)
Average temperature yesterday: 43 °F

Past Weeks' High & Low Weather Summary

 TemperatureHumidityPressure
High55 °F (Dec 17, 12:30 PM)100% (Dec 6, 2:00 PM)30.33 "Hg (Dec 6, 2:00 PM)
Low25 °F (Dec 13, 3:30 AM)47% (Dec 16, 1:00 PM)29.86 "Hg (Dec 9, 4:30 AM)
Average40 °F90%30.10 "Hg
* Reported Dec 5 11:00 AM — Dec 20 11:30 AM, Niš, Weather by CustomWeather, © 2014

Note: Actual official high and low records may vary slightly from our data, if they occured in-between our weather recording intervals... More about our weather records

Advertising

Niš weather history for previous 24 hours

 ConditionsComfort  
Time TempWeatherWind HumidityBarometerVisibility
11:30 AM
Dec 20
45 °FClear.1 mph76%30.21 "Hg4 mi
11:00 AM45 °FClear.2 mph76%30.21 "HgN/A
10:30 AM43 °FFog.6 mph81%30.21 "Hg2 mi
10:00 AM41 °FFog.3 mph81%30.21 "Hg2 mi
9:30 AM39 °FClear.3 mph93%30.21 "Hg5 mi
9:00 AM37 °FSleet. Clear.No wind93%30.21 "HgN/A
8:30 AM36 °FSleet. Clear.1 mph100%30.18 "HgN/A
8:00 AM36 °FClear.2 mph100%30.15 "Hg4 mi
7:30 AM32 °FSunny.3 mph100%30.15 "Hg10 mi
7:00 AM32 °FSunny.6 mph100%30.15 "Hg10 mi
6:30 AM34 °FClear.5 mph100%30.15 "Hg10 mi
6:00 AM32 °FClear.6 mph100%30.15 "Hg10 mi
5:30 AM32 °FClear.6 mph100%30.12 "Hg10 mi
5:00 AM34 °FClear.5 mph100%30.12 "Hg10 mi
4:30 AM34 °FClear.5 mph100%30.12 "Hg10 mi
4:00 AM36 °FClear.5 mph93%30.12 "Hg10 mi
3:30 AM36 °FClear.3 mph100%30.12 "Hg4 mi
3:00 AM36 °FClear.3 mph100%30.15 "Hg4 mi
2:30 AM36 °FClear.5 mph100%30.15 "Hg4 mi
2:00 AM36 °FClear.3 mph100%30.15 "Hg4 mi
1:30 AM36 °FClear.5 mph100%30.15 "Hg4 mi
1:00 AM37 °FClear.3 mph93%30.15 "Hg4 mi
12:30 AM37 °FClear.5 mph93%30.15 "Hg4 mi
12:00 AM37 °FClear.3 mph93%30.15 "Hg4 mi
11:30 PM
Dec 19
39 °FClear.3 mph93%30.18 "Hg4 mi
11:00 PM39 °FClear.5 mph93%30.18 "Hg4 mi
10:30 PM39 °FClear.5 mph87%30.18 "Hg4 mi
10:00 PM39 °FClear.5 mph93%30.18 "Hg10 mi
9:30 PM41 °FPassing clouds.5 mph87%30.18 "HgN/A
9:00 PM41 °FClear.2 mph87%30.18 "Hg10 mi
8:30 PM41 °FSleet. Fog.3 mph87%30.18 "HgN/A
8:00 PM41 °FSleet. Fog.5 mph87%30.18 "HgN/A
7:30 PM41 °FSleet. Fog.3 mph93%30.18 "HgN/A
7:00 PM43 °FSleet. Fog.3 mph87%30.18 "HgN/A
6:30 PM45 °FSleet. Fog.3 mph81%30.18 "HgN/A
6:00 PM45 °FSleet. Fog.3 mph87%30.18 "Hg5 mi
5:30 PM45 °FSleet. Fog.3 mph87%30.18 "HgN/A
5:00 PM45 °FClear.2 mph87%30.18 "Hg10 mi
4:30 PM46 °FClear.1 mph82%30.18 "Hg10 mi
4:00 PM48 °FClear.1 mph76%30.15 "Hg10 mi
3:30 PM50 °FSunny.2 mph71%30.18 "Hg10 mi
3:00 PM52 °FSunny.2 mph67%30.18 "Hg10 mi
2:30 PM52 °FClear.2 mph67%30.18 "Hg5 mi
2:00 PM50 °FClear.1 mph71%30.18 "Hg5 mi
1:30 PM50 °FClear.2 mph71%30.18 "Hg5 mi
1:00 PM50 °FClear.2 mph71%30.21 "Hg5 mi
12:30 PM48 °FPassing clouds.3 mph76%30.21 "Hg5 mi
12:00 PM46 °FScattered clouds.3 mph82%30.24 "Hg5 mi
Weather by CustomWeather, © 2014

See weather overviewHow to use our weather pages